This is the latest recevied weather packets stored in our database for station/object K7FED. If no packets are shown the sender has not sent any weather packets the latest 10 day(s).
| Time | Temp. | Humidity | Pressure | Rain* | Wind** | Luminosity | Snow |
|---|---|---|---|---|---|---|---|
| 1777753463 | 21.11° C | 58% | 1010.6 hPa | 0 mm | - | 185 W/m² | - |
| 1777753163 | 21.11° C | 59% | 1010.7 hPa | 0 mm | - | 201 W/m² | - |
| 1777752862 | 21.11° C | 58% | 1010.7 hPa | 0 mm | - | 207 W/m² | - |
| 1777752562 | 21.11° C | 58% | 1010.7 hPa | 0 mm | - | 190 W/m² | - |
| 1777752261 | 21.11° C | 58% | 1010.7 hPa | 0 mm | - | 188 W/m² | - |
| 1777751962 | 21.11° C | 58% | 1010.7 hPa | 0 mm | - | 228 W/m² | - |
| 1777751662 | 21.11° C | 59% | 1010.8 hPa | 0 mm | - | 401 W/m² | - |
| 1777751362 | 20.56° C | 59% | 1010.9 hPa | 0 mm | - | 344 W/m² | - |
| 1777751062 | 20.56° C | 59% | 1010.8 hPa | 0 mm | - | 306 W/m² | - |
| 1777750762 | 20.56° C | 58% | 1010.9 hPa | 0 mm | - | 284 W/m² | - |
| 1777750462 | 20.56° C | 60% | 1010.9 hPa | 0 mm | - | 282 W/m² | - |
| 1777750163 | 20.56° C | 60% | 1010.8 hPa | 0 mm | - | 291 W/m² | - |
| 1777749863 | 20.56° C | 60% | 1010.8 hPa | 0 mm | - | 237 W/m² | - |
| 1777749562 | 20° C | 62% | 1010.9 hPa | 0 mm | - | 301 W/m² | - |
| 1777749262 | 20° C | 62% | 1010.9 hPa | 0 mm | - | 233 W/m² | - |
| 1777748963 | 20° C | 61% | 1010.9 hPa | 0 mm | - | 186 W/m² | - |
| 1777748663 | 20° C | 61% | 1010.9 hPa | 0 mm | - | 201 W/m² | - |
| 1777748360 | 20° C | 61% | 1010.9 hPa | 0 mm | - | 182 W/m² | - |
| 1777748060 | 20.56° C | 60% | 1010.9 hPa | 0 mm | - | 157 W/m² | - |
| 1777747760 | 21.11° C | 59% | 1010.9 hPa | 0 mm | - | 149 W/m² | - |
| 1777747460 | 21.11° C | 59% | 1010.9 hPa | 0 mm | - | 167 W/m² | - |
| 1777747160 | 21.11° C | 58% | 1010.9 hPa | 0 mm | - | 178 W/m² | - |
| 1777746861 | 21.67° C | 58% | 1010.9 hPa | 0 mm | - | 214 W/m² | - |
| 1777746557 | 21.11° C | 58% | 1010.9 hPa | 0 mm | - | 355 W/m² | - |
| 1777746257 | 20.56° C | 60% | 1011 hPa | 0 mm | - | 291 W/m² | - |
* Rain latest hour (hover to see other rain measurements)
** Current wind speed in m/s (hover to see current wind gust speed)